DECAYED

STARLINK-2198, 47775 (Decayed)

Orbit data source: Space-Track

STARLINK-2198, 47775 was a payload satellite owned by SpaceX/Seattle (US) in LEO that was launched on Thu, 04 Mar 2021 UTC via an FALCON 9 launch vehicle from the Air Force Eastern Test Range (AFETR). Payload-class satellites include a variety of spacecraft equipped with specific instruments for various scientific and technological missions. These include communications satellites like Starlink; space stations such as the ISS; scientific satellites like the Hubble; Earth observation satellites from companies like Planet Labs, Umbra, and HawkEye 360; GPS; miniature CubeSats for education and research; and military/defense satellites.

Not visible in the next 10 days
Identifier
47775, 2021-017BF
Orbit
Decayed
Country
Flag of USUS
Related business
Manufacturer
SpaceX/Seattle
Mission
Decayed Commercial Communications
Bus & Motor
STARLINK, Unknown motor
Mass
260 kg wet, ~248 kg dry
Launch date (UTC)
2021-03-04 (5 years ago)
Launch vehicle
FALCON 9
Launch site
Air Force Eastern Test Range (AFETR)
Object type
Payload
Rocket body
Debris
Shape & HBR
Box + 1 Pan, 10.1 m
Radar Cross Section
13.562 m², Large (>1 m²)

Expand to show TLE details & history
Last TLE update: 1 year ago

TLE from 1 year ago
0 STARLINK-2198
1 47775U 21017BF  25020.54367546  .15785779  12447-4  63639-3 0  9991
2 47775  53.0214 238.8391 0005873 262.3370 179.7468 16.43528035215217
Epoch: 2025-01-20T13:02Z
TLE epoch observation values (Epoch: 2025-01-20T13:02:53.559Z)
Latitude
52.46053°
Longitude
-0.0775°
Altitude
166.583 km
Speed
7.811 km/s
True Right ascension
21h 03m 14s
True Declination
52° 16' 45"
Sunlit
Object was in daylight at epoch
Visualization orbit readout
Latitude
Unknown
Longitude
Unknown
Altitude
Unknown
Speed
Unknown
Apparent Right ascension
Unknown
Apparent Declination
Unknown
Sunlit
N/A
Visualization observer readout
Local Sidereal Time
21:24:13
Azimuth
Unknown
Elevation
Unknown
Doppler factor
Unknown
Orbital elements
Apogee altitude
160.564 km
Perigee altitude
152.888 km
Semi-major axis
6,534.863 km
Eccentricity
0.00059
Inclination
53.0214°
RAAN
238.8391°
Arg. of periapsis
262.337°
True anomaly
179.7471°
Mean anomaly
179.7468°
Eccentric anomaly
179.74695°
Mean motion
4.10855 °/min
Orbital period
87.62 mins
BSTAR
0.00063639
Loading maneuver chart data...
Computing Atmospheric mass density...

Documentation

Showing up to 5 results
|